Hermiston, OR

8:24 AM PST on December 08, 2016 (GMT -0800)
Hermiston Municipal

Weather History for KHRI - May, 2014

Change the Weather History Date:

Thursday, May 8, 2014

  Actual Average Record
Temperature  
Mean Temperature 56 °F 58 °F  
Max Temperature 71 °F 73 °F 93 °F (1987)
Min Temperature 42 °F 42 °F 32 °F (2010)
Degree Days  
Heating Degree Days 9    
Growing Degree Days 6 (Base 50)    
Moisture  
Dew Point 45 °F    
Average Humidity 73    
Maximum Humidity 100    
Minimum Humidity 32    
Precipitation  
Precipitation 0.36 in 0.03 in 0.46 in (1972)
Month to date precipitation 0.25  
Year to date precipitation 4.67  
Sea Level Pressure  
Sea Level Pressure 29.75 in    
Wind  
Wind Speed 5 mph (SW)    
Max Wind Speed 21 mph    
Max Gust Speed 31 mph    
Visibility 10 miles    
Events Rain    
T = Trace of Precipitation, MM = Missing Value Source: NWS Daily Summary

Daily Weather History Graph

Daily Weather History Graph

Search for Another Location

Airport or City:

Trip Planner

Search our weather history database for the weather conditions in past years. The results will help you decide how hot, cold, wet, or windy it might be!

Date:

Astronomy

May. 08, 2014 Rise Set
Actual Time 5:34 AM PDT 8:13 PM PDT
Civil Twilight 5:00 AM PDT 8:47 PM PDT
Nautical Twilight 4:17 AM PDT 9:30 PM PDT
Astronomical Twilight 3:28 AM PDT 10:20 PM PDT
Moon 2:00 PM PDT 2:27 AM PDT
Length of Visible Light 15h 47m
Length of Day
14h 39m
Waxing Gibbous, 66% of the Moon is Illuminated
May 8
Waxing Gibbous
May 14
Full
May 21
Last Quarter
May 28
New
Jun 5
First Quarter

Hourly Weather History & Observations

Time (PDT) Temp. Windchill Dew Point Humidity Pressure Visibility Wind Dir Wind Speed Gust Speed Precip Events Conditions
12:53 AM 46.0 °F 44.8 °F 34.0 °F 63% 29.84 in 10.0 mi NNE 3.5 mph - N/A   Clear
1:53 AM 43.0 °F 41.3 °F 35.1 °F 74% 29.84 in 10.0 mi SSE 3.5 mph - N/A   Clear
2:53 AM 46.0 °F 42.5 °F 36.0 °F 68% 29.84 in 10.0 mi SSW 6.9 mph - N/A   Clear
3:53 AM 44.1 °F 40.8 °F 36.0 °F 73% 29.84 in 10.0 mi South 5.8 mph - N/A   Clear
4:53 AM 42.1 °F 39.2 °F 37.0 °F 82% 29.84 in 10.0 mi SSE 4.6 mph - N/A   Clear
5:53 AM 42.1 °F 39.2 °F 37.0 °F 82% 29.84 in 10.0 mi SE 4.6 mph - N/A   Clear
6:53 AM 45.0 °F 43.5 °F 39.0 °F 80% 29.84 in 10.0 mi ESE 3.5 mph - N/A   Clear
7:53 AM 55.0 °F - 39.9 °F 57% 29.83 in 10.0 mi ESE 3.5 mph - N/A   Clear
8:53 AM 59.0 °F - 39.9 °F 49% 29.83 in 10.0 mi Variable 3.5 mph - N/A   Partly Cloudy
9:53 AM 62.1 °F - 39.0 °F 43% 29.81 in 10.0 mi Variable 4.6 mph - N/A   Clear
10:53 AM 64.0 °F - 39.9 °F 41% 29.79 in 10.0 mi NW 5.8 mph - N/A   Clear
11:53 AM 68.0 °F - 39.9 °F 36% 29.76 in 10.0 mi NW 5.8 mph - N/A   Clear
12:53 PM 69.1 °F - 39.9 °F 35% 29.73 in 10.0 mi NW 4.6 mph - N/A   Overcast
2:53 PM 70.0 °F - 39.0 °F 32% 29.68 in 10.0 mi Calm Calm - N/A   Overcast
3:53 PM 64.0 °F - 46.9 °F 54% 29.71 in 10.0 mi West 20.7 mph 31.1 mph 0.00 in Rain Light Rain
4:53 PM 57.0 °F - 54.0 °F 89% 29.73 in 10.0 mi WNW 6.9 mph - 0.03 in Rain Light Rain
5:53 PM 57.0 °F - 53.1 °F 87% 29.70 in 10.0 mi East 5.8 mph - 0.03 in   Overcast
6:53 PM 57.0 °F - 54.0 °F 89% 29.70 in 8.0 mi ENE 3.5 mph - 0.05 in Rain Rain
7:53 PM 55.9 °F - 54.0 °F 93% 29.68 in 10.0 mi NNW 3.5 mph - 0.02 in   Mostly Cloudy
8:53 PM 55.0 °F - 54.0 °F 96% 29.66 in 10.0 mi SE 4.6 mph - N/A   Mostly Cloudy
9:53 PM 55.9 °F - 54.0 °F 93% 29.68 in 10.0 mi WSW 6.9 mph - 0.01 in Rain Light Rain
10:51 PM 55.4 °F - 55.4 °F 100% 29.69 in 10.0 mi WSW 4.6 mph - 0.17 in Rain Light Rain
10:53 PM 55.0 °F - 55.0 °F 100% 29.68 in 10.0 mi WSW 5.8 mph - 0.17 in Rain Light Rain
11:00 PM 55.9 °F - 55.0 °F 97% 29.69 in 10.0 mi WSW 4.6 mph - 0.00 in Rain Light Rain
11:28 PM 55.9 °F - 54.0 °F 93% 29.69 in 10.0 mi WSW 8.1 mph - 0.04 in   Overcast
11:53 PM 55.0 °F - 52.0 °F 89% 29.69 in 10.0 mi WSW 11.5 mph - 0.05 in   Overcast